Temperature
21 21 21 20 20 20 20 20 19 19 19 19 19 19 19 19 19 19 19 19 19 19 19 19 19 19 19 19 19 19 19 19 19 19 19 19 18 18 18 18 18 18 18
21 21 21 20 20 20 20 19 19 19 19 19 19 19 19 19 19 19 19 19 19 19 19 19 19 19 18 19 19 19 19 19 19 19 18 18 18 18 18 18 17 18 18
21 21 21 20 20 20 20 19 19 19 19 19 19 19 19 19 19 19 19 19 19 19 19 18 18 18 18 18 18 18 18 18 18 18 18 18 18 18 18 18 18 18 18
21 21 20 20 20 20 20 19 19 19 19 19 19 19 19 19 19 19 19 19 19 19 18 18 18 18 18 18 18 18 18 18 18 18 18 18 18 18 18 18 18 18 18
21 21 20 20 20 20 19 19 19 19 19 19 19 19 19 19 19 19 19 19 18 18 18 18 18 18 18 18 18 18 18 18 18 18 18 18 18 18 18 18 18 18 18
21 20 20 20 20 20 19 19 19 19 19 19 19 19 19 19 19 18 18 18 18 18 18 18 18 18 18 18 18 18 18 18 18 18 18 18 18 18 18 18 18 18 18
21 20 20 20 20 20 19 19 19 19 19 19 18 19 19 18 18 18 18 18 18 18 18 18 18 18 18 18 18 18 18 18 18 18 18 18 18 18 18 18 18 18 17
21 20 20 20 20 20 19 19 19 19 19 19 19 18 18 18 18 18 18 18 18 18 18 18 18 18 18 18 18 18 18 18 18 18 18 18 18 18 18 18 18 17 17
21 20 20 20 20 19 19 19 19 19 19 19 19 18 18 18 18 18 18 18 18 18 18 18 18 18 18 18 18 18 18 18 18 18 18 18 18 18 18 18 18 18 17
21 20 20 19 19 19 19 19 19 19 19 19 19 18 18 18 18 18 18 18 18 18 18 18 18 18 18 18 18 18 18 18 18 18 18 18 18 18 18 18 18 18 17
21 20 20 20 19 19 19 19 19 19 19 19 18 18 18 18 18 18 18 18 18 18 18 18 18 18 18 18 18 18 18 18 18 18 18 18 18 18 18 18 18 18 17
21 20 20 20 19 19 19 19 19 18 19 19 18 18 18 18 18 18 18 18 18 18 18 18 18 18 18 18 18 18 18 18 18 18 18 18 18 18 18 18 18 18 17
21 20 20 19 19 19 19 19 19 19 19 18 18 18 18 18 18 18 18 18 18 18 18 18 18 18 18 18 18 18 18 18 18 18 18 18 18 18 18 18 18 18 17
21 20 20 19 19 19 19 19 19 19 19 18 18 18 18 18 18 18 18 18 18 18 18 18 18 18 18 18 18 18 18 18 18 18 18 18 18 18 18 18 18 18 17
20 20 20 19 19 19 19 19 19 19 19 19 18 18 18 18 18 18 18 18 18 18 18 18 18 18 18 18 18 18 18 18 18 18 18 18 18 18 18 18 18 18 17
20 20 19 19 19 19 19 19 19 19 19 19 18 18 18 18 18 18 18 18 18 18 18 18 18 18 18 18 18 18 18 18 18 18 18 18 18 18 18 18 18 18 18
20 20 19 19 19 19 19 19 19 19 19 19 18 18 18 18 18 18 18 18 18 18 18 18 18 18 18 18 18 18 18 18 18 18 18 18 18 18 18 18 18 18 18
20 20 20 19 19 19 19 19 19 19 19 18 18 18 18 18 18 18 18 18 18 18 18 18 18 18 18 18 18 18 18 18 18 18 18 18 18 18 18 18 18 18 18
20 20 19 19 19 19 19 19 19 19 19 18 18 18 18 18 18 18 18 18 18 18 18 18 18 18 18 18 18 18 18 18 18 18 18 18 18 18 18 18 18 18 17
20 20 19 19 19 19 19 19 19 19 19 18 18 18 18 18 18 18 18 18 18 18 18 18 18 18 18 18 18 18 18 18 18 18 18 18 18 18 18 18 18 17 17
20 20 19 19 19 19 19 18 18 19 19 18 18 18 18 18 18 18 18 18 18 18 18 18 18 18 18 18 18 18 18 18 18 18 18 18 18 18 18 18 17 17 17
20 20 19 19 19 19 19 19 19 19 19 18 18 18 18 18 18 18 18 18 18 18 18 18 18 18 18 18 18 18 18 18 18 18 18 18 18 18 18 17 17 17 17
20 20 19 19 19 19 19 18 18 18 18 18 18 18 18 18 18 18 18 18 18 18 18 18 18 18 18 18 18 18 18 18 18 18 18 18 18 18 18 17 17 17 17
21 20 20 19 19 19 19 18 18 18 18 18 18 18 18 18 18 18 18 18 18 18 18 18 18 18 18 18 18 18 18 18 17 17 18 18 18 18 17 17 17 17 17
21 20 20 19 19 19 19 18 18 18 18 18 18 18 18 18 18 18 18 18 18 18 18 18 18 18 18 18 18 18 18 18 18 17 17 17 17 17 17 17 17 17 17
21 20 20 19 19 19 19 18 18 18 18 18 18 18 18 18 18 18 18 18 18 18 18 18 18 18 18 18 18 18 18 17 18 17 17 17 17 17 17 17 17 17 17
Wind_Speed
10 12 14 15 14 14 14 13 12 12 13 13 13 13 13 13 13 13 13 14 14 13 13 12 12 10 10 9 9 9 10 10 10 11 11 10 9 9 7 7 8 10 11
12 13 16 15 15 14 14 13 12 12 13 13 13 13 13 12 13 13 13 13 13 12 12 11 11 10 9 9 9 8 8 8 8 9 10 9 8 8 7 7 8 9 10
13 14 15 15 15 15 14 13 12 12 12 12 12 12 11 11 12 12 12 12 12 11 11 11 10 10 9 9 8 7 6 6 6 8 9 9 8 7 7 8 10 10 10
12 14 15 16 15 15 14 13 12 11 11 11 10 10 10 10 10 11 11 11 11 11 10 9 9 9 9 8 8 7 6 6 6 6 5 7 8 8 8 9 9 9 9
12 15 17 16 15 14 13 12 11 11 10 10 9 9 9 9 9 10 10 10 10 10 10 9 8 8 8 8 7 7 6 6 6 6 4 7 8 9 9 9 9 9 9
12 14 16 16 15 14 13 12 11 10 10 9 9 8 8 8 9 9 9 10 10 10 9 9 8 7 7 7 7 7 6 6 6 4 5 7 8 9 9 8 9 9 8
11 14 16 15 14 13 12 11 11 10 9 9 8 7 7 7 9 8 9 9 9 9 9 9 8 7 6 6 6 6 6 6 6 3 5 7 9 10 10 9 9 9 8
12 14 15 15 14 13 12 11 11 10 9 8 8 7 7 7 8 8 8 8 8 8 8 8 8 7 7 7 6 6 6 7 4 4 6 7 10 10 9 9 9 9 8
12 12 11 12 12 12 11 11 11 10 9 8 7 7 7 7 8 8 9 8 8 8 8 8 8 8 8 8 7 7 8 8 6 3 6 7 11 11 10 9 10 10 9
10 9 9 10 10 9 10 11 10 10 9 8 8 7 7 7 8 9 9 9 8 8 8 8 9 9 10 9 9 10 9 8 8 4 6 8 12 12 11 10 10 10 9
9 7 7 7 7 7 8 10 10 9 8 8 8 8 7 7 8 9 9 10 10 10 10 10 10 11 11 11 12 11 9 7 7 4 6 10 13 13 12 11 11 10 10
7 7 6 7 6 5 5 7 6 6 7 7 7 7 7 5 5 6 9 10 11 12 11 12 12 12 12 10 12 12 8 9 7 4 8 13 14 13 13 12 11 10 10
6 6 6 6 4 4 4 4 3 3 4 4 5 5 4 4 4 5 6 7 9 11 9 10 11 10 9 7 6 8 8 6 5 4 9 14 14 13 13 12 12 11 11
6 5 5 5 5 3 3 2 2 3 3 2 4 4 3 2 2 2 2 5 6 6 6 5 5 5 5 5 5 6 6 5 4 4 9 14 14 14 13 12 12 12 11
6 5 5 5 5 3 2 1 1 1 2 3 3 2 2 1 1 1 0 1 2 3 4 4 3 3 3 4 5 5 4 4 4 5 7 13 14 14 14 13 13 12 12
5 5 5 5 5 3 2 0 1 1 1 1 2 2 1 0 1 0 0 1 1 2 3 3 3 3 3 3 4 3 3 4 3 5 7 11 13 14 14 14 13 13 12
6 5 4 4 4 3 1 0 1 1 2 2 2 2 1 1 1 0 1 1 2 3 3 2 2 2 3 3 4 4 3 3 3 5 7 8 10 13 15 14 13 13 13
6 6 4 3 4 3 2 1 2 2 2 2 2 2 1 0 0 1 1 1 1 2 2 2 2 2 2 2 2 3 3 3 4 5 6 7 8 9 12 14 13 13 13
6 5 4 3 4 3 2 1 0 1 1 1 1 2 1 0 0 1 0 0 1 1 2 2 2 2 2 2 2 2 2 3 2 3 4 5 6 7 9 13 14 14 13
6 5 4 3 3 2 1 1 0 1 1 1 2 1 1 0 0 1 1 1 1 1 1 1 1 1 2 2 2 1 1 2 2 2 3 4 5 6 8 9 11 11 13
6 5 4 2 2 1 1 0 0 0 1 1 2 2 1 0 0 1 1 0 1 1 1 1 1 1 1 1 1 1 1 1 2 2 2 2 3 5 6 7 8 8 9
6 5 4 3 2 1 0 0 0 0 1 1 1 2 1 0 0 0 0 1 1 0 1 1 1 1 1 1 1 1 0 0 1 1 2 2 3 3 3 5 5 6 6
6 5 4 3 3 2 1 0 0 1 1 1 1 2 1 1 1 2 1 0 0 1 1 2 2 2 2 2 1 1 1 1 0 0 0 1 1 1 2 3 5 7 7
7 6 5 3 3 2 2 0 0 1 1 1 1 1 1 1 1 1 1 1 1 0 0 2 2 1 2 2 2 1 1 1 1 1 1 1 0 1 2 2 2 5 6
6 6 6 5 3 3 2 1 1 1 1 2 2 2 2 1 1 2 2 1 1 1 0 1 1 1 1 1 1 1 1 1 1 1 1 1 1 1 2 2 2 3 4
6 5 6 5 4 3 3 2 2 1 1 2 2 2 1 1 2 2 2 2 2 2 1 1 1 1 1 1 2 1 1 1 1 1 2 2 2 1 1 1 1 2 3
Wind_Direction
102 111 114 112 111 109 108 108 108 110 110 111 114 116 117 118 118 120 123 123 124 125 126 128 130 126 121 118 114 108 106 108 111 111 107 105 105 105 110 117 117 108 113
105 116 118 115 113 112 109 108 109 111 111 112 118 119 121 122 122 122 123 125 128 130 132 133 134 132 129 126 121 117 118 123 128 128 124 119 114 112 108 100 105 111 119
101 116 119 116 115 113 112 111 110 111 113 117 119 123 125 127 126 128 128 129 131 134 136 137 139 136 133 132 129 130 138 145 155 159 155 138 129 126 116 109 111 117 118
100 112 119 118 115 114 114 113 112 112 114 119 121 125 127 128 131 134 135 136 135 135 137 138 140 137 134 137 142 149 162 174 188 195 192 145 132 129 128 124 122 121 123
104 111 118 120 118 117 116 114 115 116 114 115 118 124 129 134 135 137 139 141 141 142 144 143 142 142 144 150 160 172 186 199 212 214 168 119 119 135 138 137 134 132 134
105 113 119 120 121 121 120 119 117 117 116 118 120 122 134 145 145 143 143 145 146 150 152 150 149 149 154 160 175 191 206 221 234 216 153 136 138 146 145 144 141 141 143
102 110 119 121 120 121 123 123 120 118 119 122 126 128 135 149 152 151 150 151 152 154 156 156 161 162 165 171 184 202 219 237 242 192 134 135 144 154 153 153 149 147 150
106 111 120 124 124 126 127 127 126 125 127 132 133 135 142 152 157 156 157 158 161 162 165 164 171 176 182 186 198 216 235 252 249 168 138 139 150 158 163 163 160 157 162
103 110 122 125 129 132 136 136 135 137 139 144 147 150 154 158 161 164 164 166 171 172 173 176 184 188 193 198 208 224 242 252 268 207 154 151 158 165 172 173 170 170 173
96 101 118 127 131 136 142 143 147 150 149 154 161 164 166 172 173 173 175 175 180 184 186 192 196 198 200 206 215 225 234 247 248 218 158 162 165 171 178 181 178 179 181
90 100 104 109 116 129 138 145 155 160 163 167 172 176 182 185 179 181 177 178 185 190 197 203 204 205 206 212 220 227 231 241 233 195 165 165 169 174 179 182 183 186 191
98 101 101 101 99 110 117 134 153 159 165 181 173 180 186 183 176 172 170 187 193 197 202 208 213 210 211 211 214 222 227 227 230 197 166 167 170 176 182 185 189 191 192
103 98 102 102 103 95 105 141 140 145 159 169 162 174 165 176 180 172 174 187 195 200 203 204 212 211 210 206 198 204 219 225 206 181 166 171 174 180 183 186 190 190 193
102 102 99 102 96 87 89 110 155 163 154 159 162 171 169 195 198 185 189 189 190 189 185 192 209 215 214 209 216 217 215 218 201 165 169 175 179 183 188 191 193 195 199
107 106 96 92 91 86 69 353 120 104 127 147 143 160 164 189 192 148 182 193 200 178 171 184 207 204 220 230 227 220 214 227 198 179 168 179 184 189 191 194 195 196 201
113 110 111 110 102 99 98 37 45 75 140 135 138 135 124 55 64 36 213 182 201 180 168 183 198 197 217 223 227 221 217 224 199 174 170 180 187 189 190 193 197 200 204
117 111 111 122 109 101 86 356 130 185 139 105 104 108 125 133 106 220 228 204 187 177 178 190 202 203 217 222 224 215 215 221 198 186 181 181 184 191 194 195 198 201 204
111 106 106 102 109 113 94 4 356 34 58 84 108 113 96 73 209 247 224 176 176 169 158 178 204 212 218 232 235 227 215 210 202 191 189 185 181 186 192 195 197 202 205
105 108 108 86 91 106 120 153 25 59 72 98 88 104 125 249 230 271 260 127 216 166 168 195 176 201 218 237 248 231 213 219 212 197 186 182 178 176 179 189 197 202 208
110 107 108 103 88 104 122 164 90 60 83 112 99 86 95 357 73 281 235 142 239 176 166 144 176 213 218 224 248 285 248 206 204 202 192 171 168 176 182 182 189 200 205
117 116 117 116 104 109 112 282 149 133 108 87 108 97 99 342 33 252 339 98 256 220 160 163 157 235 237 179 112 315 295 186 200 199 191 170 168 170 172 174 183 187 191
135 130 135 138 134 151 134 239 207 132 126 109 82 112 116 153 339 298 109 290 295 270 170 199 190 206 243 190 189 217 219 13 271 216 177 179 174 160 168 169 168 171 180
151 150 156 154 149 155 126 169 30 126 103 65 78 86 53 50 42 350 74 313 265 226 178 219 203 210 234 223 208 202 176 192 337 25 166 140 139 150 170 149 165 172 177
160 158 145 138 141 141 139 88 50 86 69 49 33 63 71 63 28 357 12 337 291 296 159 241 195 232 220 230 223 235 225 157 184 207 343 55 103 199 186 189 153 159 165
161 154 146 135 131 139 152 149 94 34 44 47 50 49 47 57 38 17 31 6 345 337 317 297 302 239 236 246 241 232 212 165 188 181 210 216 247 239 191 180 155 139 154
146 142 135 129 130 142 147 132 110 85 60 41 42 62 48 71 48 37 38 26 11 350 342 340 318 277 283 283 286 278 214 222 211 189 205 207 215 235 188 138 181 157 164
Height
1499 1499 1500 1500 1500 1501 1502 1503 1505 1506 1508 1509 1511 1513 1514 1517 1519 1521 1523 1525 1528 1530 1532 1534 1536 1537 1539 1541 1542 1544 1545 1546 1548 1549 1550 1551 1551 1552 1553 1553 1554 1555 1555
1501 1500 1501 1502 1502 1503 1504 1505 1507 1508 1510 1511 1513 1514 1516 1518 1520 1522 1524 1526 1529 1531 1533 1534 1536 1538 1540 1541 1543 1544 1546 1547 1549 1550 1550 1551 1552 1553 1553 1554 1555 1555 1556
1503 1502 1503 1504 1504 1505 1506 1508 1509 1510 1511 1513 1515 1516 1518 1520 1522 1524 1525 1527 1529 1531 1533 1535 1537 1539 1540 1542 1543 1545 1546 1548 1549 1550 1551 1552 1553 1553 1554 1555 1555 1556 1557
1505 1504 1505 1506 1506 1507 1509 1510 1511 1512 1513 1515 1516 1518 1520 1521 1523 1525 1527 1528 1530 1532 1534 1535 1537 1539 1541 1542 1544 1545 1547 1548 1550 1551 1552 1553 1553 1554 1555 1555 1556 1557 1558
1507 1506 1507 1507 1508 1509 1510 1512 1513 1514 1515 1516 1518 1519 1521 1522 1524 1526 1528 1529 1531 1533 1534 1536 1538 1539 1541 1542 1544 1546 1547 1549 1550 1552 1553 1554 1554 1555 1555 1555 1556 1557 1558
1508 1508 1508 1509 1510 1511 1512 1513 1514 1515 1516 1518 1519 1520 1521 1523 1525 1526 1528 1530 1531 1533 1535 1536 1538 1539 1541 1543 1545 1546 1548 1549 1551 1552 1553 1553 1554 1555 1555 1556 1556 1557 1558
1510 1510 1510 1511 1511 1512 1513 1514 1515 1517 1518 1519 1520 1521 1522 1523 1525 1527 1528 1530 1531 1533 1535 1536 1538 1540 1541 1543 1544 1546 1548 1549 1550 1552 1553 1553 1554 1554 1555 1555 1556 1557 1558
1512 1512 1512 1513 1513 1514 1515 1516 1517 1518 1519 1520 1521 1522 1523 1524 1525 1527 1528 1530 1531 1533 1534 1536 1537 1539 1541 1543 1544 1546 1547 1549 1550 1551 1552 1553 1553 1554 1554 1555 1556 1557 1558
1514 1514 1514 1515 1515 1516 1516 1517 1518 1519 1520 1521 1522 1523 1523 1524 1526 1527 1529 1530 1531 1532 1534 1536 1537 1539 1541 1542 1544 1545 1547 1548 1550 1551 1551 1552 1553 1553 1554 1555 1556 1556 1558
1516 1516 1517 1517 1517 1517 1518 1519 1519 1520 1521 1522 1522 1523 1524 1525 1526 1527 1528 1529 1531 1532 1533 1535 1537 1538 1540 1542 1543 1545 1546 1548 1549 1550 1551 1551 1552 1552 1553 1554 1555 1556 1557
1518 1518 1519 1519 1519 1519 1520 1520 1520 1521 1522 1522 1523 1524 1524 1525 1525 1526 1527 1528 1529 1531 1532 1534 1536 1538 1539 1541 1543 1544 1546 1547 1548 1549 1550 1550 1551 1552 1552 1553 1554 1555 1556
1519 1520 1520 1520 1520 1521 1521 1521 1521 1522 1522 1523 1523 1524 1525 1525 1526 1527 1527 1527 1528 1529 1531 1533 1535 1537 1538 1540 1542 1543 1544 1546 1547 1548 1548 1549 1550 1550 1551 1552 1552 1553 1554
1520 1521 1521 1521 1521 1522 1522 1523 1523 1523 1524 1524 1524 1525 1525 1525 1526 1526 1526 1526 1527 1528 1530 1532 1534 1535 1537 1539 1541 1542 1543 1545 1545 1546 1547 1548 1549 1549 1549 1550 1551 1552 1553
1521 1522 1522 1522 1522 1522 1522 1523 1523 1524 1524 1524 1525 1525 1525 1525 1526 1526 1526 1526 1526 1527 1529 1531 1533 1535 1536 1538 1540 1541 1542 1543 1544 1544 1545 1546 1547 1547 1548 1549 1550 1551 1552
1522 1522 1522 1523 1522 1522 1522 1523 1524 1524 1524 1525 1525 1525 1525 1525 1526 1526 1525 1525 1526 1527 1528 1530 1531 1533 1535 1537 1538 1540 1541 1542 1543 1543 1544 1544 1545 1546 1547 1548 1549 1549 1550
1521 1522 1523 1523 1523 1523 1523 1523 1524 1524 1524 1525 1525 1525 1525 1525 1525 1525 1525 1524 1525 1526 1528 1529 1530 1532 1534 1535 1537 1538 1539 1540 1541 1541 1542 1542 1543 1544 1545 1546 1547 1548 1549
1521 1522 1523 1523 1523 1523 1523 1523 1524 1524 1525 1525 1525 1525 1525 1525 1525 1525 1524 1524 1524 1525 1527 1528 1530 1531 1532 1534 1535 1536 1537 1538 1539 1539 1540 1541 1541 1542 1543 1544 1545 1546 1547
1521 1522 1523 1524 1523 1523 1524 1524 1524 1525 1525 1525 1525 1525 1525 1525 1525 1525 1525 1524 1525 1525 1527 1528 1529 1530 1531 1532 1533 1534 1535 1536 1537 1537 1538 1539 1539 1540 1541 1543 1543 1544 1545
1522 1523 1523 1524 1524 1524 1524 1524 1525 1525 1525 1525 1525 1525 1525 1525 1525 1524 1525 1525 1525 1526 1527 1528 1529 1529 1530 1531 1532 1533 1533 1534 1535 1536 1536 1537 1538 1539 1539 1541 1541 1542 1543
1523 1523 1524 1524 1524 1524 1525 1525 1525 1525 1525 1525 1525 1525 1525 1525 1525 1524 1525 1525 1525 1526 1526 1527 1528 1528 1529 1530 1531 1531 1531 1532 1533 1534 1535 1536 1536 1537 1538 1539 1539 1540 1541
1523 1524 1524 1524 1524 1524 1524 1524 1524 1525 1525 1525 1525 1525 1525 1525 1525 1525 1524 1525 1525 1525 1526 1526 1526 1527 1528 1529 1529 1529 1530 1530 1531 1533 1534 1534 1534 1536 1536 1537 1537 1538 1538
1523 1523 1523 1524 1523 1524 1524 1524 1524 1524 1525 1525 1525 1525 1525 1525 1525 1525 1524 1524 1524 1525 1525 1525 1526 1526 1527 1528 1528 1528 1529 1531 1531 1531 1532 1533 1534 1534 1535 1535 1536 1536 1537
1522 1523 1523 1523 1523 1523 1524 1524 1524 1524 1524 1525 1525 1525 1525 1525 1524 1524 1524 1524 1524 1524 1524 1524 1525 1525 1526 1526 1527 1528 1529 1529 1529 1530 1531 1532 1532 1533 1533 1534 1534 1534 1534
1522 1522 1522 1523 1523 1523 1523 1523 1524 1524 1524 1525 1525 1525 1525 1524 1524 1524 1524 1523 1523 1523 1523 1524 1524 1524 1525 1525 1526 1527 1528 1528 1528 1529 1530 1531 1531 1531 1532 1533 1533 1533 1533
1521 1521 1521 1522 1522 1522 1522 1522 1523 1524 1524 1524 1524 1524 1524 1524 1524 1523 1523 1523 1523 1523 1523 1523 1523 1523 1523 1524 1524 1525 1526 1526 1527 1528 1528 1529 1530 1530 1530 1531 1531 1532 1532
1520 1520 1521 1521 1521 1521 1521 1522 1522 1523 1523 1524 1524 1524 1524 1523 1523 1523 1522 1522 1522 1522 1522 1522 1521 1522 1522 1522 1523 1524 1524 1525 1525 1526 1526 1527 1528 1528 1529 1529 1530 1530 1530